Weather History for KEBG - August, 2013

Change the Weather History Date:

Wednesday, August 7, 2013

  Actual Average (KMFE) Record (KMFE)
Temperature  
Mean Temperature 92 °F 88 °F  
Max Temperature 104 °F 99 °F 105 °F (2003)
Min Temperature 81 °F 77 °F 69 °F (1974)
Degree Days  
Heating Degree Days 0 0  
Month to date heating degree days 0  
Since 1 June heating degree days 0  
Since 1 July heating degree days 0  
Cooling Degree Days 27 23  
Month to date cooling degree days 160  
Year to date cooling degree days 2717  
Since 1 June cooling degree days 1462  
Growing Degree Days 42 (Base 50)    
Moisture  
Dew Point 69 °F    
Average Humidity 55    
Maximum Humidity 79    
Minimum Humidity 20    
Precipitation  
Precipitation 0.00 in 0.04 in 1.20 in (1975)
Month to date precipitation 0.33  
Year to date precipitation 11.69  
Sea Level Pressure  
Sea Level Pressure 29.87 in    
Wind  
Wind Speed 15 mph (SSE)    
Max Wind Speed 21 mph    
Max Gust Speed 31 mph    
Visibility 6 miles    
Events      
T = Trace of Precipitation, MM = Missing Value Source: NWS Daily Summary

Daily Weather History Graph

Daily Weather History Graph

Search for Another Location

Airport or City:

Trip Planner

Search our weather history database for the weather conditions in past years. The results will help you decide how hot, cold, wet, or windy it might be!

Date:

Astronomy

Aug. 07, 2013 Rise Set
Actual Time 7:00 AM CDT 8:15 PM CDT
Civil Twilight 6:36 AM CDT 8:39 PM CDT
Nautical Twilight 6:07 AM CDT 9:08 PM CDT
Astronomical Twilight 5:36 AM CDT 9:38 PM CDT
Moon 7:40 AM CDT (8/7) 8:36 PM CDT (8/7)
Length of Visible Light 14h 03m
Length of Day
13h 14m
New Moon, 1% of the Moon is Illuminated
Aug 7
New Moon
Aug 14
First Quarter
Aug 20
Full
Aug 28
Last Quarter
Sep 5
New

Hourly Weather History & Observations

Time (CDT) Temp. Heat Index Dew Point Humidity Pressure Visibility Wind Dir Wind Speed Gust Speed Precip Events Conditions
12:15 AM 84.6 °F 92.4 °F 74.7 °F 72% 29.91 in 7.0 mi SSE 16.1 mph 21.9 mph N/A   Scattered Clouds
12:35 AM 84.6 °F 92.4 °F 74.8 °F 72% 29.92 in 7.0 mi SSE 16.1 mph - N/A   Scattered Clouds
12:55 AM 84.4 °F 92.4 °F 74.8 °F 73% 29.92 in 7.0 mi SSE 12.7 mph 19.6 mph N/A   Scattered Clouds
1:15 AM 84.2 °F 92.3 °F 75.2 °F 74% 29.91 in 5.0 mi SSE 15.0 mph 21.9 mph N/A   Haze
1:35 AM 84.2 °F 92.3 °F 75.0 °F 74% 29.91 in 7.0 mi SSE 15.0 mph 24.2 mph N/A   Clear
1:55 AM 84.2 °F 91.9 °F 74.8 °F 73% 29.91 in 7.0 mi SSE 16.1 mph 23.0 mph N/A   Clear
2:15 AM 84.2 °F 91.6 °F 74.5 °F 72% 29.91 in 7.0 mi SSE 16.1 mph 21.9 mph N/A   Clear
2:35 AM 83.8 °F 91.1 °F 74.3 °F 73% 29.90 in 5.0 mi SSE 17.3 mph 26.5 mph N/A   Haze
2:55 AM 83.8 °F 91.1 °F 74.3 °F 73% 29.90 in 7.0 mi SSE 16.1 mph 25.3 mph N/A   Clear
3:15 AM 83.7 °F 90.7 °F 74.3 °F 73% 29.90 in 7.0 mi SSE 15.0 mph 20.7 mph N/A   Clear
3:35 AM 83.7 °F 90.7 °F 74.3 °F 73% 29.90 in 7.0 mi SSE 16.1 mph - N/A   Clear
3:55 AM 83.3 °F 90.5 °F 74.5 °F 75% 29.90 in 7.0 mi SSE 13.8 mph 17.3 mph N/A   Clear
4:15 AM 83.3 °F 90.5 °F 74.5 °F 75% 29.90 in 7.0 mi SSE 11.5 mph - N/A   Clear
4:35 AM 83.3 °F 90.5 °F 74.5 °F 75% 29.89 in 7.0 mi SSE 11.5 mph 16.1 mph N/A   Clear
4:55 AM 82.9 °F 89.7 °F 74.3 °F 75% 29.89 in 5.0 mi South 9.2 mph - N/A   Haze
5:15 AM 82.9 °F 89.7 °F 74.1 °F 75% 29.89 in 7.0 mi South 9.2 mph - N/A   Clear
5:35 AM 82.6 °F 89.1 °F 74.3 °F 76% 29.89 in 7.0 mi SSE 10.4 mph - N/A   Clear
5:55 AM 82.4 °F 88.7 °F 74.3 °F 76% 29.88 in 7.0 mi SSE 11.5 mph - N/A   Clear
6:15 AM 82.0 °F 88.1 °F 74.3 °F 77% 29.88 in 7.0 mi SSE 9.2 mph - N/A   Clear
6:35 AM 81.9 °F 88.0 °F 74.3 °F 78% 29.89 in 7.0 mi SSE 6.9 mph - N/A   Clear
6:55 AM 81.7 °F 87.6 °F 74.3 °F 78% 29.88 in 7.0 mi SSE 9.2 mph - N/A   Clear
7:15 AM 81.5 °F 87.4 °F 74.5 °F 79% 29.88 in 5.0 mi SSE 9.2 mph - N/A   Haze
7:35 AM 81.9 °F 88.2 °F 74.7 °F 79% 29.89 in 4.0 mi SSE 8.1 mph - N/A   Haze
7:55 AM 82.6 °F 89.4 °F 74.8 °F 77% 29.89 in 5.0 mi South 9.2 mph - N/A   Haze
8:15 AM 83.7 °F 91.3 °F 75.0 °F 75% 29.90 in 5.0 mi South 10.4 mph - N/A   Haze
8:35 AM 84.4 °F 92.0 °F 74.7 °F 72% 29.90 in 5.0 mi South 17.3 mph 23.0 mph N/A   Haze
8:55 AM 85.3 °F 93.4 °F 74.3 °F 70% 29.90 in 4.0 mi South 16.1 mph 23.0 mph N/A   Haze
9:15 AM 86.4 °F 94.2 °F 73.6 °F 66% 29.90 in 5.0 mi South 18.4 mph 26.5 mph N/A   Haze
9:35 AM 87.4 °F 94.8 °F 73.0 °F 62% 29.90 in 5.0 mi South 19.6 mph 25.3 mph N/A   Haze
9:55 AM 88.7 °F 95.7 °F 72.3 °F 58% 29.90 in 5.0 mi SSE 19.6 mph 31.1 mph N/A   Haze
10:15 AM 89.8 °F 96.5 °F 71.4 °F 55% 29.91 in 5.0 mi South 17.3 mph 21.9 mph N/A   Haze
10:35 AM 90.7 °F 95.9 °F 70.0 °F 50% 29.91 in 5.0 mi South 19.6 mph 25.3 mph N/A   Haze
10:55 AM 91.9 °F 97.9 °F 70.2 °F 49% 29.91 in 5.0 mi SSE 15.0 mph 21.9 mph N/A   Haze
11:15 AM 92.8 °F 98.1 °F 69.3 °F 46% 29.91 in 4.0 mi SSE 16.1 mph 21.9 mph N/A   Haze
11:35 AM 94.8 °F 99.8 °F 68.7 °F 42% 29.90 in 5.0 mi SSE 17.3 mph 24.2 mph N/A   Haze
11:55 AM 95.7 °F 98.7 °F 65.3 °F 37% 29.90 in 5.0 mi South 20.7 mph 26.5 mph N/A   Haze
12:15 PM 96.3 °F 98.6 °F 64.6 °F 35% 29.90 in 7.0 mi SSE 19.6 mph 25.3 mph N/A   Clear
12:35 PM 97.7 °F 100.0 °F 63.9 °F 33% 29.89 in 7.0 mi South 13.8 mph 24.2 mph N/A   Clear
12:55 PM 98.2 °F 100.4 °F 63.3 °F 32% 29.89 in 5.0 mi SSE 13.8 mph 19.6 mph N/A   Haze
1:15 PM 100.0 °F 101.2 °F 61.5 °F 28% 29.88 in 5.0 mi South 16.1 mph 27.6 mph N/A   Haze
1:35 PM 100.2 °F 101.5 °F 61.5 °F 28% 29.87 in 5.0 mi SSE 18.4 mph 24.2 mph N/A   Haze
1:55 PM 101.3 °F 101.6 °F 59.7 °F 25% 29.86 in 5.0 mi South 17.3 mph 27.6 mph N/A   Haze
2:15 PM 102.6 °F 104.8 °F 62.6 °F 27% 29.85 in 5.0 mi South 12.7 mph 20.7 mph N/A   Haze
2:35 PM 101.8 °F 105.6 °F 64.9 °F 30% 29.85 in 5.0 mi SSE 18.4 mph 25.3 mph N/A   Haze
2:55 PM 102.0 °F 106.6 °F 66.4 °F 31% 29.84 in 5.0 mi SE 15.0 mph 25.3 mph N/A   Haze
3:15 PM 101.8 °F 106.3 °F 66.0 °F 31% 29.83 in 5.0 mi SE 17.3 mph 23.0 mph N/A   Haze
3:35 PM 102.6 °F 106.2 °F 64.8 °F 29% 29.82 in 5.0 mi SE 13.8 mph 24.2 mph N/A   Haze
3:55 PM 102.7 °F 105.8 °F 63.7 °F 28% 29.81 in 5.0 mi SSE 16.1 mph 23.0 mph N/A   Haze
4:15 PM 103.6 °F 106.0 °F 62.4 °F 26% 29.81 in 5.0 mi SSE 15.0 mph 23.0 mph N/A   Haze
4:35 PM 102.9 °F 103.0 °F 58.8 °F 23% 29.80 in 4.0 mi SE 17.3 mph 25.3 mph N/A   Haze
4:55 PM 102.6 °F 101.9 °F 56.5 °F 22% 29.80 in 5.0 mi SSE 15.0 mph 25.3 mph N/A   Haze
5:15 PM 102.2 °F 100.4 °F 54.3 °F 20% 29.79 in 7.0 mi SSE 19.6 mph 25.3 mph N/A   Clear
5:35 PM 101.8 °F 100.4 °F 55.6 °F 21% 29.79 in 5.0 mi SSE 19.6 mph 23.0 mph N/A   Haze
5:55 PM 101.1 °F 100.8 °F 58.6 °F 24% 29.79 in 5.0 mi SSE 17.3 mph 27.6 mph N/A   Haze
6:15 PM 99.7 °F 100.1 °F 59.9 °F 27% 29.79 in 5.0 mi SE 18.4 mph 24.2 mph N/A   Haze
6:35 PM 98.6 °F 99.4 °F 61.0 °F 29% 29.79 in 5.0 mi SE 20.7 mph 25.3 mph N/A   Haze
6:55 PM 97.3 °F 97.9 °F 61.0 °F 30% 29.79 in 5.0 mi SE 18.4 mph 25.3 mph N/A   Haze
7:15 PM 95.7 °F 97.2 °F 63.3 °F 34% 29.80 in 5.0 mi SE 20.7 mph 26.5 mph N/A   Haze
7:35 PM 94.3 °F 97.7 °F 66.4 °F 40% 29.81 in 5.0 mi SSE 15.0 mph 23.0 mph N/A   Haze
7:55 PM 92.7 °F 96.7 °F 68.0 °F 44% 29.81 in 5.0 mi SE 19.6 mph 23.0 mph N/A   Haze
8:15 PM 91.4 °F 96.3 °F 68.9 °F 48% 29.82 in 5.0 mi SE 17.3 mph 21.9 mph N/A   Haze
8:35 PM 90.0 °F 95.0 °F 69.8 °F 51% 29.83 in 7.0 mi SSE 17.3 mph 23.0 mph N/A   Clear
8:55 PM 88.9 °F 94.2 °F 70.5 °F 54% 29.84 in 7.0 mi SSE 15.0 mph 21.9 mph N/A   Clear
9:15 PM 87.8 °F 93.4 °F 70.9 °F 57% 29.84 in 5.0 mi SE 10.4 mph - N/A   Haze
9:35 PM 87.1 °F 93.2 °F 71.8 °F 60% 29.85 in 7.0 mi SE 16.1 mph 21.9 mph N/A   Clear
9:55 PM 86.2 °F 92.6 °F 72.3 °F 63% 29.86 in 5.0 mi SE 13.8 mph 18.4 mph N/A   Haze
10:15 PM 85.5 °F 91.8 °F 72.5 °F 65% 29.87 in 5.0 mi SE 12.7 mph - N/A   Haze
10:35 PM 85.1 °F 91.8 °F 73.2 °F 67% 29.87 in 5.0 mi SE 13.8 mph 19.6 mph N/A   Haze
10:55 PM 84.6 °F 91.4 °F 73.6 °F 69% 29.88 in 5.0 mi SE 12.7 mph 17.3 mph N/A   Haze
11:15 PM 84.4 °F 92.0 °F 74.3 °F 72% 29.89 in 7.0 mi SSE 12.7 mph 18.4 mph N/A   Mostly Cloudy
11:35 PM 84.6 °F 92.4 °F 74.7 °F 72% 29.89 in 7.0 mi SE 16.1 mph - N/A   Overcast
11:55 PM 84.7 °F 92.8 °F 74.8 °F 72% 29.89 in 7.0 mi SE 12.7 mph - N/A   Mostly Cloudy